This is the latest recevied weather packets stored in our database for station/object K0WOI. If no packets are shown the sender has not sent any weather packets the latest 10 day(s).
| Time | Temp. | Humidity | Pressure | Rain* | Wind** | Luminosity | Snow |
|---|---|---|---|---|---|---|---|
| 1777812941 | 12.22° C | 55% | 1008.8 hPa | 0 mm | - | 39 W/m² | - |
| 1777812638 | 12.22° C | 54% | 1008.6 hPa | 0 mm | - | 37 W/m² | - |
| 1777812334 | 11.67° C | 55% | 1008.6 hPa | 0 mm | - | 34 W/m² | - |
| 1777812033 | 11.67° C | 55% | 1008.9 hPa | 0 mm | - | 32 W/m² | - |
| 1777811731 | 11.67° C | 54% | 1008.9 hPa | 0 mm | - | 28 W/m² | - |
| 1777811427 | 11.67° C | 54% | 1008.8 hPa | 0 mm | - | 25 W/m² | - |
| 1777811124 | 11.67° C | 54% | 1008.9 hPa | 0 mm | - | 26 W/m² | - |
| 1777810821 | 11.67° C | 54% | 1009 hPa | 0 mm | - | 26 W/m² | - |
| 1777810518 | 11.67° C | 55% | 1008.9 hPa | 0 mm | - | 24 W/m² | - |
| 1777810215 | 11.67° C | 53% | 1009.1 hPa | 0 mm | - | 23 W/m² | - |
| 1777809910 | 11.67° C | 53% | 1009 hPa | 0 mm | - | 23 W/m² | - |
| 1777809609 | 11.67° C | 53% | 1008.9 hPa | 0 mm | - | 18 W/m² | - |
| 1777809306 | 11.67° C | 52% | 1008.8 hPa | 0 mm | - | 15 W/m² | - |
| 1777809004 | 12.22° C | 52% | 1008.9 hPa | 0 mm | - | 12 W/m² | - |
| 1777808701 | 12.22° C | 51% | 1009 hPa | 0 mm | - | 12 W/m² | - |
| 1777808397 | 11.67° C | 53% | 1008.8 hPa | 0 mm | - | 11 W/m² | - |
| 1777808095 | 11.67° C | 53% | 1008.8 hPa | 0 mm | - | 10 W/m² | - |
| 1777807793 | 11.67° C | 53% | 1009.3 hPa | 0 mm | - | 6 W/m² | - |
| 1777807491 | 11.67° C | 53% | 1009.1 hPa | 0 mm | - | 3 W/m² | - |
| 1777807186 | 11.11° C | 54% | 1009.3 hPa | 0 mm | - | 1 W/m² | - |
| 1777806884 | 11.11° C | 55% | 1009.1 hPa | 0 mm | - | 1 W/m² | - |
| 1777806580 | 11.11° C | 56% | 1009.4 hPa | 0 mm | - | 0 W/m² | - |
| 1777806276 | 11.11° C | 56% | 1009.6 hPa | 0 mm | - | 0 W/m² | - |
| 1777805973 | 11.11° C | 55% | 1009.7 hPa | 0 mm | - | 0 W/m² | - |
| 1777805670 | 11.11° C | 55% | 1009.9 hPa | 0 mm | - | 0 W/m² | - |
* Rain latest hour (hover to see other rain measurements)
** Current wind speed in m/s (hover to see current wind gust speed)